Вернуться в каталог

ACTS

АктивенСвязьGEO
NORAD 22796·PAYLOAD·🇺🇸 United States

Запущен Sep 12, 1993 с Cape Canaveral Space Force Station

Loading…

TLE

СвежийSource: Space-Track

Эпоха: Sep 14, 2026, 08:09 UTC

1 22796U 93058B   26257.34015830 -.00000115  00000-0  00000-0 0  9995
2 22796  14.5703 354.8793 0052445  84.4690 290.4809  1.00273287127808

Отслеживайте ACTS в реальном времени с AllMySat

Download on the App Store